Location: Stuttgart
(48.8069°N, 9.1544°E)
Time: 05:49:21
(UTC+01:00)

ISS - Pass Details

Date: 13 January 2018
Orbit: 402 x 407 km, 51.6° (Epoch: 20 January)

Event Time Altitude Azimuth Distance (km) Brightness Sun altitude
Exits shadow 07:06:41 12° 258° (WSW) 1,334 -1.7 -10.6°
Maximum altitude 07:08:29 18° 221° (SW) 1,089 -1.9 -10.3°
Drops below altitude 10° 07:10:45 10° 177° (S) 1,460 -0.7 -9.9°
Sets 07:13:16 0° 157° (SSE) 2,316 0.8 -9.5°
